Content
SEND FEEDBACK

Daily
Averages
Monthly
Summary
United States of America

HINTON, IOWA


Home > North America > United States > Iowa
Elevation: 1312 feet     Latitude: 42 36N     Longitude: 096 24W

WEATHER
 
SELECT A DAY
Number of Records: 208,259;   Date Range: 1/1/95 - 11/22/14
 
SHARE

PRINT THIS DATA

[ ← Previous Day ]
WEATHER ALMANAC - FEBRUARY 13, 2013
[ Next Day → ]
[ °C ]   °F
Weather ElementAverageHighLow
Temperature35.8 °F52 °F (1:52 pm)19.9 °F (5:52 am)
Dewpoint26 °F30.9 °F (11:52 am)18 °F (5:52 am)
Humidity71.1 %92 % (2:52 am)41 % (1:52 pm)
Barometer29.80 in29.90 in (1:52 am)29.70 in (2:52 pm)
Wind Speed6.8 mph18.4 mph (1:52 pm)
Wind Gust23 mph (2:52 pm)
Weather ElementAverage
Visibility10 mi
Wind DirectionSSE (167.8 °)

Weather ElementTotal
Precipitation---
Heating Degree Days29.1 (Base 65)
Averaged from 23 records on February 13, 2013
WEATHER CONDITIONS BREAKOUT
WIND DIRECTION BREAKOUT
WEATHER BY HOUR - FEBRUARY 13, 2013
[ °C ]   °F
Local TimeTemperatureDewpointHumidityBarometerVisibilityWind DirectionWind SpeedGust SpeedPrecipitationEventsConditions
1:52 AM21.9 °F19.0 °F89 %29.90 in10.0 miWest (280°)3.5 mphClear
2:52 AM21.9 °F19.9 °F92 %29.89 in10.0 miCalmClear
3:52 AM23.0 °F21.0 °F92 %29.88 in10.0 miCalmScattered Clouds
4:52 AM21.9 °F19.9 °F92 %29.88 in10.0 miCalmClear
5:52 AM19.9 °F18.0 °F92 %29.88 in10.0 miCalmClear
6:52 AM21.0 °F19.0 °F92 %29.87 in10.0 miCalmClear
7:52 AM21.0 °F18.0 °F88 %29.87 in10.0 miESE (110°)4.6 mphClear
8:52 AM25.0 °F21.9 °F88 %29.87 in10.0 miCalmClear
9:52 AM32.0 °F27.0 °F82 %29.85 in10.0 miCalmClear
10:52 AM39.0 °F30.0 °F70 %29.83 in10.0 miSouth (180°)5.8 mphClear
11:52 AM46.0 °F30.9 °F56 %29.80 in10.0 miSSW (210°)6.9 mphClear
12:52 PM51.1 °F30.0 °F44 %29.76 in10.0 miWSW (250°)11.5 mph18.4 mphClear
1:52 PM52.0 °F28.9 °F41 %29.73 in10.0 miWest (280°)18.4 mphClear
2:52 PM51.1 °F28.9 °F43 %29.70 in10.0 miWest (280°)15.0 mph23.0 mphMostly Cloudy
3:52 PM51.1 °F28.9 °F43 %29.70 in10.0 miWest (280°)11.5 mphScattered Clouds
4:52 PM50.0 °F28.0 °F43 %29.70 in10.0 miWest (270°)13.8 mphOvercast
5:52 PM46.9 °F30.9 °F54 %29.71 in10.0 miWest (280°)10.4 mphOvercast
6:52 PM42.1 °F30.0 °F62 %29.72 in10.0 miWest (270°)10.4 mphClear
7:52 PM39.9 °F30.0 °F68 %29.72 in10.0 miNorthMostly Cloudy
8:52 PM41.0 °F30.0 °F65 %29.73 in10.0 miWest (280°)12.7 mphClear
9:52 PM37.9 °F30.0 °F73 %29.75 in10.0 miWNW (290°)10.4 mphClear
10:52 PM35.1 °F30.0 °F82 %29.77 in10.0 miNNW (330°)8.1 mphClear
11:52 PM33.1 °F28.9 °F85 %29.78 in10.0 miWest (270°)5.8 mphClear
Hourly data recorded from KSUX, located miles away from Hinton, Iowa







STORIES FROM OUR PARTNERS